Caldwell, NJ

1:05 PM EDT on September 17, 2019 (GMT -0400)
Essex County

Weather History for KCDW - May, 2019

Change the Weather History Date:

Wednesday, May 22, 2019

  Actual Average Record
Temperature  
Mean Temperature 62 °F -  
Max Temperature 77 °F 73 °F 88 °F (1975)
Min Temperature 48 °F 50 °F 36 °F (2002)
Degree Days  
Heating Degree Days 4    
Growing Degree Days 12 (Base 50)    
Moisture  
Dew Point 40 °F    
Average Humidity 43    
Maximum Humidity 77    
Minimum Humidity 23    
Precipitation  
Precipitation 0.00 in - - ()
Sea Level Pressure  
Sea Level Pressure 30.22 in    
Wind  
Wind Speed 2 mph (ESE)    
Max Wind Speed 9 mph    
Max Gust Speed -    
Visibility 10 miles    
Events      
Averages and records for this station are not official NWS values.
T = Trace of Precipitation, MM = Missing Value Source: NWS Daily Summary

Daily Weather History Graph

Daily Weather History Graph

Search for Another Location

Airport or City:

Astronomy

May. 22, 2019 Rise Set
Actual Time 5:33 AM EDT 8:14 PM EDT
Civil Twilight 5:01 AM EDT 8:46 PM EDT
Nautical Twilight 4:22 AM EDT 9:26 PM EDT
Astronomical Twilight 3:37 AM EDT 10:11 PM EDT
Moon 11:56 PM EDT (5/22) 8:39 AM EDT (5/22)
Length of Visible Light 15h 44m
Length of Day
14h 40m
Waning Gibbous, 85% of the Moon is Illuminated
May 22
Waning Gibbous
May 26
Last Quarter
Jun 3
New
Jun 10
First Quarter
Jun 17
Full

Hourly Weather History & Observations

Time (EDT) Temp. Dew Point Humidity Pressure Visibility Wind Dir Wind Speed Gust Speed Precip Events Conditions
12:53 AM 57.0 °F 37.9 °F 49% 30.15 in 10.0 mi Calm Calm - N/A   Clear
1:53 AM 54.0 °F 39.9 °F 59% 30.17 in 10.0 mi Calm Calm - N/A   Clear
2:53 AM 53.1 °F 39.0 °F 59% 30.17 in 10.0 mi Calm Calm - N/A   Clear
3:53 AM 51.1 °F 41.0 °F 68% 30.17 in 10.0 mi Calm Calm - N/A   Clear
4:53 AM 48.9 °F 42.1 °F 77% 30.19 in 10.0 mi Calm Calm - N/A   Clear
5:53 AM 48.9 °F 42.1 °F 77% 30.21 in 10.0 mi Calm Calm - N/A   Clear
6:53 AM 53.1 °F 43.0 °F 69% 30.23 in 10.0 mi Calm Calm - N/A   Clear
7:53 AM 59.0 °F 39.9 °F 49% 30.24 in 10.0 mi Calm Calm - N/A   Clear
8:53 AM 64.0 °F 39.9 °F 41% 30.26 in 10.0 mi Variable 3.5 mph - N/A   Clear
9:53 AM 66.0 °F 37.9 °F 36% 30.25 in 10.0 mi Variable 5.8 mph - N/A   Clear
10:53 AM 68.0 °F 36.0 °F 31% 30.27 in 10.0 mi NNW 9.2 mph - N/A   Clear
11:53 AM 70.0 °F 37.0 °F 30% 30.27 in 10.0 mi NNE 8.1 mph - N/A   Clear
12:53 PM 72.0 °F 37.9 °F 29% 30.25 in 10.0 mi NE 8.1 mph - N/A   Clear
1:53 PM 73.0 °F 37.9 °F 28% 30.23 in 10.0 mi Variable 5.8 mph - N/A   Clear
2:53 PM 73.9 °F 37.0 °F 26% 30.24 in 10.0 mi Calm Calm - N/A   Clear
3:53 PM 73.9 °F 37.9 °F 27% 30.22 in 10.0 mi Calm Calm - N/A   Clear
4:53 PM 75.9 °F 35.1 °F 23% 30.22 in 10.0 mi Calm Calm - N/A   Clear
5:53 PM 75.0 °F 39.0 °F 27% 30.22 in 10.0 mi SE 5.8 mph - N/A   Clear
6:53 PM 75.0 °F 37.0 °F 25% 30.21 in 10.0 mi SSE 4.6 mph - N/A   Clear
7:53 PM 72.0 °F 41.0 °F 33% 30.21 in 10.0 mi SSE 3.5 mph - N/A   Clear
8:53 PM 70.0 °F 42.1 °F 36% 30.22 in 10.0 mi Calm Calm - N/A   Clear
9:53 PM 66.9 °F 45.0 °F 45% 30.24 in 10.0 mi Calm Calm - N/A   Clear
10:53 PM 66.9 °F 43.0 °F 42% 30.25 in 10.0 mi WSW 3.5 mph - N/A   Clear
11:53 PM 66.0 °F 44.1 °F 45% 30.23 in 10.0 mi Calm Calm - N/A   Mostly Cloudy